Home   Weather   Lampertheim   Past weeks

Flag for Germany Past Weather in Lampertheim, Hesse, Germany — Yesterday and Last 2 Weeks

Now
54 °F

Partly sunny.


Feels Like: 50 °F
Forecast: 39 / 52 °F
Wind: 12 mph from West

Location: Mannheim City

Current Time: Apr 25, 2017 at 11:10:11 am

Latest Report: Apr 25, 2017 at 10:20 am


Visibility: N/A

Pressure: 29.77 "Hg

Humidity: 58%

Dew Point: 39 °F

Location of LampertheimLocation

Past Weather in Lampertheim — Graph

°F

Lampertheim Temperature Yesterday

Maximum temperature yesterday: 63 °F (at 6:50 pm)
Minimum temperature yesterday: 32 °F (at 5:20 am)
Average temperature yesterday: 52 °F

High & Low Weather Summary for the Past Weeks

 TemperatureHumidityPressure
High63 °F (Apr 24, 6:50 pm)100% (Apr 24, 5:20 am)30.60 "Hg (Apr 24, 5:20 am)
Low28 °F (Apr 20, 5:50 am)28% (Apr 21, 12:50 pm)29.71 "Hg (Apr 25, 5:50 am)
Average49 °F50%30.30 "Hg
* Reported Apr 19 9:20 am — Apr 25 9:20 am, Lampertheim, Weather by CustomWeather, © 2017

Note: Actual official high and low records may vary slightly from our data, if they occured in-between our weather recording intervals... More about our weather records

Advertising

Lampertheim Weather History for the Previous 24 Hours

Scroll right to see more
 ConditionsComfort  
Time TempWeatherWind HumidityBarometerVisibility
9:20 am
Tue, Apr 25
52 °FPartly sunny.9 mph58%29.74 "HgN/A
8:50 am52 °FPartly sunny.5 mph54%29.74 "HgN/A
8:20 am50 °FPassing clouds.5 mph58%29.74 "HgN/A
7:50 am50 °FPassing clouds.5 mph54%29.74 "HgN/A
7:20 am48 °FPassing clouds.5 mph58%29.74 "HgN/A
6:50 am48 °FSunny.3 mph58%29.74 "Hg10 mi
6:20 am46 °FPassing clouds.5 mph62%29.74 "HgN/A
5:50 am46 °FClear.3 mph57%29.71 "Hg10 mi
8:50 pm
Mon, Apr 24
55 °FClear.2 mph44%29.80 "Hg10 mi
8:20 pm59 °FSunny.3 mph39%29.80 "Hg10 mi
7:50 pm61 °FSunny.5 mph34%29.83 "Hg10 mi
7:20 pm61 °FPassing clouds.5 mph31%29.83 "HgN/A
6:50 pm63 °FSunny.6 mph30%29.83 "Hg10 mi
6:20 pm61 °FSunny.6 mph31%29.86 "Hg10 mi
5:50 pm61 °FPassing clouds.5 mph31%29.86 "HgN/A
5:20 pm61 °FSunny.2 mph31%29.89 "Hg10 mi
4:50 pm61 °FSunny.2 mph29%29.89 "Hg10 mi
4:20 pm61 °FSunny.3 mph31%29.92 "Hg10 mi
3:50 pm61 °FSunny.5 mph29%29.92 "Hg10 mi
3:20 pm59 °FPassing clouds.6 mph31%29.95 "HgN/A
2:50 pm59 °FSunny.7 mph31%29.98 "Hg10 mi
2:20 pm59 °FSunny.5 mph31%29.98 "Hg10 mi
1:50 pm59 °FSunny.6 mph29%30.01 "Hg10 mi
1:20 pm57 °FPassing clouds.7 mph29%30.01 "HgN/A
12:50 pm57 °FSunny.5 mph31%30.04 "Hg10 mi
12:20 pm55 °FSunny.3 mph33%30.04 "Hg10 mi
11:50 am54 °FSunny.3 mph35%30.07 "Hg10 mi
11:20 am52 °FSunny.5 mph38%30.07 "Hg10 mi
Weather by CustomWeather, © 2017

See weather overviewHow to use our weather pages